Back to catalog

STARLINK-34137

AliveCommunicationsVLEO
NORAD 63953·PAYLOAD·🇺🇸 United States

Launched May 13, 2025 from Cape Canaveral Space Force Station

Loading…

Next Passes (next 24 hours)

TLE

FreshSource: CelesTrak SupGP

Epoch: Sep 14, 2026, 22:48 UTC

1 63953C 25099B   26257.95048611 -.00021209  00000+0 -76817-3 0  2571
2 63953  42.9994 187.4276 0001034 255.9154 357.4594 15.27590752    10

Track STARLINK-34137 in real time with AllMySat

Download on the App Store